Estación Meteorológica de la Universidad de Murcia
Estación Meteorológica de la Universidad de Murcia
Universidad de Murcia
 

Velocidad y dirección del vientoVelocidad y dirección del viento

 

Velocidad: 22,68 km/h a las 12:00:00 del día 23/10/2021
Dirección del viento: 228,4 º SW Rosa de los vientos a las 12:00:00 del día 23/10/2021

Nota:
N (entre 337,6º y 22,5º), NE (entre 22,6º y 67,5º), E (entre 67,6º y 112,5º), SE (entre 112,6º y 157,5º), S (entre 157,6º y 202,5º), SW (entre 202,6º y 247,5º), W (entre 247,5º y 292,5º) y NW (entre 292,6º y 337,5º)

||Velocidad últimos meses|| ----||Dirección del viento||


Velocidad

  • 1 - 22,68 km/h del día 23/10/2021
  • 2 - 23,04 km/h del día 22/10/2021
  • 3 - 23,04 km/h del día 21/10/2021
  • 4 - 22,68 km/h del día 20/10/2021
  • 5 - 27,72 km/h del día 19/10/2021
  • 6 - 23,76 km/h del día 18/10/2021
  • 7 - 24,48 km/h del día 17/10/2021
  • 8 - 23,76 km/h del día 16/10/2021
  • 9 - 22,68 km/h del día 15/10/2021
  • 10 - 28,08 km/h del día 14/10/2021
  • 11 - 24,48 km/h del día 13/10/2021
  • 12 - 21,24 km/h del día 12/10/2021
  • 13 - 35,28 km/h del día 11/10/2021
  • 14 - 25,2 km/h del día 10/10/2021
  • 15 - 26,64 km/h del día 09/10/2021
  • 16 - 25,92 km/h del día 08/10/2021
  • 17 - 19,08 km/h del día 07/10/2021
  • 18 - 29,88 km/h del día 06/10/2021
  • 19 - 31,32 km/h del día 05/10/2021
  • 20 - 34,92 km/h del día 04/10/2021
  • 21 - 52,92 km/h del día 03/10/2021
  • 22 - 24,12 km/h del día 02/10/2021
  • 23 - 24,48 km/h del día 01/10/2021
  • 24 - 26,28 km/h del día 30/09/2021
  • 25 - 36 km/h del día 29/09/2021
  • 26 - 27,72 km/h del día 28/09/2021
  • 27 - 21,24 km/h del día 27/09/2021
  • 28 - 25,56 km/h del día 26/09/2021
  • 29 - 30,24 km/h del día 25/09/2021
  • 30 - 26,28 km/h del día 24/09/2021
  • 31 - 38,16 km/h del día 23/09/2021
  • 32 - 19,44 km/h del día 22/09/2021
  • 33 - 61,2 km/h del día 21/09/2021
  • 34 - 30,6 km/h del día 20/09/2021
  • 35 - 32,76 km/h del día 19/09/2021
  • 36 - 27 km/h del día 18/09/2021
  • 37 - 29,16 km/h del día 17/09/2021
  • 38 - 31,32 km/h del día 16/09/2021
  • 39 - 39,96 km/h del día 15/09/2021
  • 40 - 30,6 km/h del día 14/09/2021
  • 41 - 16,92 km/h del día 13/09/2021
  • 42 - 34,2 km/h del día 12/09/2021
  • 43 - 30,6 km/h del día 11/09/2021
  • 44 - 37,08 km/h del día 10/09/2021
  • 45 - 30,24 km/h del día 09/09/2021
  • 46 - 19,8 km/h del día 08/09/2021
  • 47 - 32,04 km/h del día 07/09/2021
  • 48 - 27,36 km/h del día 06/09/2021
  • 49 - 28,44 km/h del día 05/09/2021
  • 50 - 34,2 km/h del día 04/09/2021
  • 51 - 28,44 km/h del día 03/09/2021
  • 52 - 30,6 km/h del día 02/09/2021
  • 53 - 32,76 km/h del día 01/09/2021
  • 54 - 35,64 km/h del día 31/08/2021
  • 55 - 30,24 km/h del día 30/08/2021
  • 56 - 37,08 km/h del día 29/08/2021
  • 57 - 36 km/h del día 28/08/2021
  • 58 - 29,52 km/h del día 27/08/2021
  • 59 - 27,36 km/h del día 26/08/2021

||Volver al inicio de la página||


Dirección del viento

  • 1 - 962.15 º N del día 31/08/2021
  • 2 - 1691.14 º 1691,14 del día 30/09/2021
  • 3 - 1441.19 º 1441,19 del día 30/08/2021
  • 4 - 1688.75 º 1688,75 del día 29/09/2021
  • 5 - 1438.59 º 1438,59 del día 29/08/2021
  • 6 - 1565.87 º 1565,87 del día 28/09/2021
  • 7 - 1720.97 º 1720,97 del día 28/08/2021
  • 8 - 1993.44 º 1993,44 del día 27/09/2021
  • 9 - 1836.47 º 1836,47 del día 27/08/2021
  • 10 - 2119.41 º 2119,41 del día 26/09/2021
  • 11 - 1513.92 º 1513,92 del día 26/08/2021
  • 12 - 2469.3 º 2469,3 del día 25/10/2021
  • 13 - 1294.94 º 1294,94 del día 25/09/2021
  • 14 - 1079.4 º 1079,4 del día 25/08/2021
  • 15 - 1935.71 º 1935,71 del día 24/10/2021
  • 16 - 1787.15 º 1787,15 del día 24/09/2021
  • 17 - 1710.16 º 1710,16 del día 23/10/2021
  • 18 - 1668.25 º 1668,25 del día 23/09/2021
  • 19 - 1340.67 º 1340,67 del día 22/10/2021
  • 20 - 1673.01 º 1673,01 del día 22/09/2021
  • 21 - 2014.74 º 2014,74 del día 21/10/2021
  • 22 - 1346.44 º 1346,44 del día 21/09/2021
  • 23 - 1908.87 º 1908,87 del día 20/10/2021
  • 24 - 1725.63 º 1725,63 del día 20/09/2021
  • 25 - 1621.51 º 1621,51 del día 19/10/2021
  • 26 - 1443.88 º 1443,88 del día 19/09/2021
  • 27 - 1453.73 º 1453,73 del día 18/10/2021
  • 28 - 1961 º 1961 del día 18/09/2021
  • 29 - 1443.22 º 1443,22 del día 17/10/2021
  • 30 - 1751.69 º 1751,69 del día 17/09/2021
  • 31 - 1570.14 º 1570,14 del día 16/10/2021
  • 32 - 1844.41 º 1844,41 del día 16/09/2021
  • 33 - 2103 º 2103 del día 15/10/2021
  • 34 - 1946.84 º 1946,84 del día 15/09/2021
  • 35 - 1789.72 º 1789,72 del día 14/10/2021
  • 36 - 1672.86 º 1672,86 del día 14/09/2021
  • 37 - 1713.89 º 1713,89 del día 13/10/2021
  • 38 - 1672.93 º 1672,93 del día 13/09/2021
  • 39 - 1708.52 º 1708,52 del día 12/10/2021
  • 40 - 1357.04 º 1357,04 del día 12/09/2021
  • 41 - 1659.42 º 1659,42 del día 11/10/2021
  • 42 - 1548.58 º 1548,58 del día 11/09/2021
  • 43 - 1454.09 º 1454,09 del día 10/10/2021
  • 44 - 2064.87 º 2064,87 del día 10/09/2021
  • 45 - 1297.75 º 1297,75 del día 09/10/2021
  • 46 - 1938.29 º 1938,29 del día 09/09/2021
  • 47 - 1731.68 º 1731,68 del día 08/10/2021
  • 48 - 1777.28 º 1777,28 del día 08/09/2021
  • 49 - 1604.72 º 1604,72 del día 07/10/2021
  • 50 - 1518.42 º 1518,42 del día 07/09/2021
  • 51 - 1582.61 º 1582,61 del día 06/10/2021
  • 52 - 1418.25 º 1418,25 del día 06/09/2021
  • 53 - 2258.63 º 2258,63 del día 05/10/2021
  • 54 - 1390.11 º 1390,11 del día 05/09/2021
  • 55 - 2333.71 º 2333,71 del día 04/10/2021
  • 56 - 1223.72 º 1223,72 del día 04/09/2021
  • 57 - 1813.96 º 1813,96 del día 03/10/2021
  • 58 - 1488.77 º 1488,77 del día 03/09/2021
  • 59 - 1814.76 º 1814,76 del día 02/10/2021
  • 60 - 1554.17 º 1554,17 del día 02/09/2021
  • 61 - 1826.93 º 1826,93 del día 01/10/2021
  • 62 - 1328.43 º 1328,43 del día 01/09/2021

|| Temperatura Ambiente|| Humedad relativa|| Precipitación|| Radiación Solar Global y PAR|| Temperatura y humedad del suelo|| Presión atmosférica|| Más información|| Volver a la página principal|| Volver al inicio de la página||


Estación Meteorológica de la Universidad de Murcia
http://estacion.um.es/
Informacion actualizada a: 25/10/2021 a las 11:54:00